Temp
70 73 71 71 58 52 47 56 65 68 71 75 82 80 80 80 77 68 83 86 81 78 77 78 79 80 80 79 79 78 78 78 78 78 78 78 78 78 78 78 78 79 79 80 80 79 79 79 79
72 78 72 64 51 43 49 60 65 69 76 83 84 80 77 76 84 80 83 84 83 77 76 77 80 80 79 79 78 78 78 78 78 78 78 78 78 78 78 78 78 79 80 80 80 80 79 79 78
77 78 63 56 48 46 51 62 67 74 80 81 80 85 81 80 83 84 84 83 82 77 76 77 79 79 79 79 78 78 78 78 78 78 78 78 78 77 77 78 78 79 80 80 80 80 79 78 78
74 70 66 52 50 57 61 67 74 76 80 86 83 80 83 88 88 84 82 83 80 78 77 78 79 79 79 79 78 78 78 78 78 78 78 77 77 77 77 77 78 79 79 80 80 79 78 78 78
71 63 52 52 55 60 69 72 73 73 76 81 84 80 79 86 86 83 81 83 79 77 77 77 79 79 79 79 78 78 78 77 78 78 77 77 77 76 76 77 78 78 79 79 79 78 77 77 77
64 62 48 48 59 67 71 73 72 73 76 81 84 80 78 84 83 83 83 81 82 78 76 76 79 78 78 78 78 77 77 77 77 77 77 77 77 76 76 77 77 78 78 78 78 77 77 76 76
61 56 49 53 59 64 70 76 74 73 74 78 84 79 77 81 86 85 84 82 81 80 77 76 76 77 78 78 77 77 77 77 77 76 76 76 76 76 76 76 77 77 77 77 77 77 76 76 76
66 60 52 54 58 59 72 74 73 76 79 86 90 79 72 83 86 85 82 79 78 76 77 75 74 75 74 75 77 77 76 76 76 76 76 76 76 76 76 75 76 76 76 76 76 76 76 76 75
67 53 53 57 59 64 73 71 78 83 79 83 87 87 87 87 86 83 80 77 75 76 74 73 72 72 72 72 75 76 77 76 76 76 76 74 72 72 73 74 75 76 76 76 76 76 76 75 75
58 47 55 65 68 67 72 73 76 77 75 77 80 88 90 88 85 83 81 78 75 75 73 73 72 71 71 77 73 71 73 73 72 72 72 70 68 68 71 73 75 76 76 76 76 76 75 76 69
59 55 63 66 70 71 70 71 77 73 70 75 75 81 86 84 80 82 83 83 80 79 76 76 74 73 74 76 71 70 70 70 70 69 69 68 68 67 70 66 70 68 74 71 73 72 71 69 68
55 64 65 67 71 70 68 73 72 75 74 80 82 82 83 79 77 78 75 77 82 79 78 75 73 72 73 75 71 71 71 69 69 69 68 67 66 65 65 66 66 65 67 66 66 67 68 67 68
55 62 65 68 69 70 72 69 71 73 80 83 84 84 82 80 76 73 76 76 80 79 78 75 75 73 74 74 73 72 72 71 70 69 69 69 68 66 66 66 65 65 65 66 65 66 67 67 67
58 59 60 63 64 65 66 68 72 75 81 80 82 82 80 83 76 75 73 75 76 77 78 78 75 73 75 76 75 75 72 71 69 70 70 70 70 68 67 66 67 66 67 67 67 67 66 66 66
58 52 57 60 61 63 68 63 65 74 77 77 78 82 82 82 80 77 76 73 74 78 78 79 79 81 79 78 76 75 74 73 72 72 71 71 70 69 68 68 68 68 68 67 67 65 65 64 67
51 49 41 52 60 65 64 55 68 74 73 74 75 79 82 78 80 77 78 76 77 78 81 80 83 78 78 81 79 77 75 75 74 74 73 72 71 70 69 69 69 68 67 68 68 66 64 65 66
43 37 41 48 57 59 58 54 65 69 70 71 74 72 78 80 76 76 76 76 75 74 78 80 83 80 80 81 80 77 75 76 76 75 74 72 72 71 70 70 69 67 68 68 68 66 65 63 63
40 41 46 46 55 55 53 54 60 64 65 64 67 71 74 78 77 78 77 76 78 78 75 80 80 85 80 80 80 78 73 76 72 74 74 73 72 72 71 70 68 69 69 67 66 66 65 64 65
50 48 46 51 58 54 52 53 58 60 61 60 62 66 68 73 80 80 80 77 74 73 74 70 77 81 80 77 74 75 76 76 70 73 74 74 74 72 70 72 69 70 70 69 67 65 63 62 64
50 46 44 51 57 55 52 53 59 59 59 60 62 63 65 69 74 79 79 78 73 74 73 77 73 79 77 79 79 79 79 70 77 74 73 73 74 73 72 72 70 71 71 66 66 66 62 62 63
47 44 45 45 52 53 50 48 53 60 60 62 63 63 64 64 68 72 75 73 74 73 71 71 76 77 78 79 76 68 69 67 67 68 68 69 72 73 72 71 72 70 71 68 66 64 65 62 61
41 51 50 48 43 34 47 33 47 53 56 58 61 60 61 63 66 67 71 71 71 73 73 71 74 75 77 75 76 75 71 68 68 69 68 69 71 72 72 71 71 70 68 66 65 66 64 65 61
46 51 48 47 42 37 42 34 44 49 50 55 59 63 62 64 64 66 71 74 75 73 70 69 69 69 72 72 75 75 68 67 65 65 69 67 68 71 72 71 68 68 67 66 66 67 65 66 63
53 47 44 40 37 28 39 37 40 46 50 56 58 56 60 60 65 67 68 71 70 70 71 68 68 69 69 69 69 69 68 67 64 65 65 66 67 68 69 70 69 69 69 67 66 67 66 64 65
45 35 25 24 24 26 42 36 41 50 50 47 50 52 55 56 55 57 61 67 70 69 68 69 71 73 74 73 72 71 72 71 66 67 66 65 65 65 68 69 68 70 68 67 67 67 66 64 63
40 36 23 19 24 28 40 31 38 47 51 53 55 53 56 54 55 56 58 64 69 71 70 70 69 73 72 73 73 72 72 72 68 69 68 69 69 68 68 68 67 70 70 69 67 65 65 65 65
40 33 40 26 31 29 31 39 47 50 49 51 52 54 53 55 54 56 59 61 67 71 74 71 72 73 72 72 71 69 70 68 69 67 68 67 66 67 67 68 67 70 70 68 65 65 65 65 64
45 46 29 28 22 22 31 34 35 42 44 47 49 50 52 54 55 57 58 60 62 66 70 73 70 72 70 71 70 70 68 69 68 67 66 66 66 67 67 66 66 67 68 66 65 65 65 64 61
38 35 35 33 31 26 24 28 42 42 45 43 46 50 51 51 54 55 57 60 63 62 67 68 68 66 65 67 67 67 68 68 67 67 67 67 66 67 67 67 67 68 68 67 66 63 63 62 61
44 38 35 27 28 31 30 29 50 45 46 46 47 51 52 53 53 53 55 56 60 62 64 66 63 65 66 67 68 67 68 67 67 66 67 67 67 68 68 69 69 70 68 67 64 63 64 62 60
MSLP
1010.04 1009.75 1009.88 1010.03 1011.46 1011.72 1010.88 1009.09 1007.16 1005.52 1004.76 1003.23 1002.75 1002.43 1001.32 1001.04 1001.60 1002.47 1001.84 1002.91 1003.11 1005.12 1006.22 1006.98 1007.07 1006.82 1007.03 1007.59 1008.21 1008.77 1009.40 1009.88 1010.27 1010.86 1011.08 1011.26 1011.63 1011.93 1012.15 1012.45 1012.83 1013.02 1013.34 1013.46 1013.65 1013.74 1013.87 1014.01 1014.15
1009.93 1009.69 1010.01 1010.59 1011.78 1011.85 1009.98 1007.58 1006.47 1005.73 1004.21 1002.56 1001.98 1001.31 1001.16 1000.92 1000.53 1001.72 1002.34 1002.97 1002.89 1004.31 1005.91 1006.77 1006.99 1006.69 1006.94 1007.43 1008.11 1008.80 1009.28 1009.63 1010.08 1010.63 1011.03 1011.22 1011.59 1011.80 1012.01 1012.41 1012.81 1013.04 1013.16 1013.42 1013.61 1013.79 1013.93 1013.97 1014.08
1009.75 1009.87 1010.69 1011.23 1011.45 1010.96 1009.09 1006.73 1005.87 1004.70 1003.63 1002.58 1001.58 1000.25 1000.46 1000.32 1000.45 1000.57 1000.98 1002.31 1002.45 1003.98 1005.37 1006.38 1006.88 1006.71 1006.79 1007.31 1007.82 1008.53 1009.12 1009.52 1010.05 1010.44 1010.79 1011.15 1011.52 1011.78 1011.96 1012.28 1012.66 1012.83 1013.04 1013.28 1013.49 1013.64 1013.83 1013.92 1014.03
1009.63 1010.33 1011.03 1011.09 1010.57 1008.98 1007.47 1006.30 1005.40 1004.64 1002.90 1001.61 1000.81 1000.29 999.81 998.77 999.25 1000.13 1001.00 1002.49 1002.38 1003.99 1005.16 1006.01 1006.63 1006.69 1006.53 1007.00 1007.71 1008.35 1008.76 1009.22 1009.77 1010.21 1010.62 1011.04 1011.36 1011.66 1011.91 1012.17 1012.54 1012.77 1012.99 1013.19 1013.40 1013.61 1013.81 1013.85 1013.90
1009.77 1010.71 1011.41 1010.93 1009.41 1007.98 1006.93 1006.13 1005.32 1004.62 1003.31 1001.38 1000.41 999.93 999.63 999.55 999.50 1000.06 1001.20 1002.33 1002.74 1004.13 1005.03 1005.86 1006.46 1006.80 1006.44 1006.91 1007.52 1008.13 1008.62 1009.01 1009.41 1009.91 1010.31 1010.72 1011.07 1011.52 1011.72 1011.96 1012.29 1012.53 1012.77 1013.01 1013.27 1013.55 1013.67 1013.85 1013.88
1010.06 1010.73 1011.59 1010.72 1008.71 1007.25 1006.42 1005.60 1005.06 1004.08 1002.66 1001.15 1000.31 1000.19 1000.41 1000.19 999.89 1000.53 1001.20 1001.88 1002.53 1003.48 1004.94 1005.65 1006.41 1006.75 1006.50 1006.86 1007.41 1007.73 1008.30 1008.68 1009.08 1009.56 1010.08 1010.47 1010.83 1011.19 1011.53 1011.84 1012.07 1012.38 1012.59 1012.87 1013.14 1013.43 1013.64 1013.74 1013.88
1010.15 1010.65 1010.88 1009.93 1008.48 1006.94 1005.99 1005.02 1004.85 1004.07 1002.81 1001.18 1000.50 1000.16 1000.51 1000.66 1000.28 1000.21 1000.95 1001.93 1002.91 1003.53 1004.46 1005.65 1006.34 1006.56 1006.50 1006.90 1007.32 1007.54 1008.14 1008.53 1008.86 1009.32 1009.75 1010.16 1010.58 1010.88 1011.26 1011.55 1011.96 1012.21 1012.46 1012.70 1013.02 1013.22 1013.53 1013.67 1013.88
1009.67 1009.96 1010.19 1009.46 1008.21 1006.40 1005.32 1004.89 1004.25 1003.92 1002.35 1001.27 1000.50 1000.00 1000.41 1000.10 1000.84 1001.40 1002.14 1002.84 1003.09 1003.85 1004.89 1005.60 1006.34 1006.47 1006.52 1006.82 1007.50 1007.57 1007.99 1008.44 1008.81 1009.30 1009.68 1010.07 1010.43 1010.73 1011.12 1011.36 1011.72 1011.95 1012.27 1012.54 1012.77 1013.05 1013.29 1013.47 1013.73
1009.58 1009.94 1009.33 1008.65 1007.85 1006.07 1005.27 1004.94 1003.33 1003.44 1002.72 1001.75 1001.16 999.93 998.72 999.90 1001.22 1002.29 1002.95 1003.75 1004.24 1004.57 1005.05 1005.62 1006.35 1006.47 1006.56 1006.66 1007.47 1007.80 1008.13 1008.46 1008.78 1009.29 1009.66 1010.06 1010.39 1010.63 1011.10 1011.28 1011.56 1011.83 1012.17 1012.37 1012.55 1012.78 1012.98 1013.23 1013.51
1009.63 1009.31 1008.45 1007.61 1007.34 1006.40 1005.75 1004.65 1004.11 1003.89 1003.18 1001.90 1001.70 1000.32 999.76 1000.76 1000.91 1001.59 1002.81 1003.48 1004.15 1004.54 1005.26 1005.73 1006.28 1006.26 1006.40 1006.40 1007.03 1007.52 1008.10 1008.40 1008.58 1008.87 1009.22 1009.72 1010.16 1010.48 1010.78 1011.00 1011.33 1011.56 1011.93 1012.14 1012.29 1012.52 1012.75 1012.97 1013.28
1008.92 1008.41 1008.19 1007.48 1007.10 1006.52 1005.95 1004.91 1004.73 1004.23 1003.35 1002.86 1002.35 1001.79 1001.40 1001.57 1002.50 1002.82 1001.16 1001.44 1002.12 1003.22 1004.83 1005.29 1005.95 1006.06 1006.26 1006.07 1006.89 1007.29 1007.67 1008.25 1008.43 1008.73 1008.88 1009.37 1009.90 1010.37 1010.49 1010.84 1011.04 1011.35 1011.61 1011.95 1012.06 1012.31 1012.59 1012.76 1012.99
1009.09 1008.63 1008.19 1007.51 1007.07 1006.73 1006.04 1005.26 1004.19 1004.25 1003.14 1002.77 1001.74 1002.37 1002.05 1002.14 1002.64 1003.16 1003.56 1002.55 1002.47 1003.44 1004.13 1005.16 1005.90 1006.82 1006.68 1006.14 1006.35 1007.02 1007.31 1007.76 1008.10 1008.21 1008.50 1008.98 1009.64 1010.10 1010.43 1010.50 1010.81 1011.19 1011.46 1011.76 1011.91 1012.08 1012.30 1012.56 1012.74
1009.01 1008.62 1008.00 1007.41 1006.84 1006.32 1006.10 1005.01 1004.08 1003.15 1002.40 1002.60 1001.27 1001.84 1001.99 1001.96 1002.22 1003.11 1002.60 1003.26 1002.29 1003.29 1003.75 1004.49 1005.33 1005.96 1006.57 1007.05 1006.63 1006.58 1006.99 1007.38 1007.33 1007.71 1007.97 1008.36 1008.95 1009.46 1009.77 1010.09 1010.32 1010.73 1011.14 1011.27 1011.63 1011.72 1011.98 1012.22 1012.40
1009.29 1008.82 1008.26 1007.36 1006.84 1006.31 1005.89 1004.80 1004.31 1001.89 1002.01 1002.07 1001.72 1000.54 1001.52 1001.41 1002.02 1002.36 1003.10 1002.83 1002.56 1002.98 1003.59 1003.79 1004.26 1004.75 1005.17 1005.67 1006.84 1006.01 1006.31 1006.83 1007.06 1007.07 1007.10 1007.61 1008.12 1008.70 1009.04 1009.48 1009.76 1010.18 1010.50 1010.74 1011.03 1011.32 1011.51 1011.75 1012.07
1009.64 1009.23 1008.30 1007.60 1006.92 1006.53 1006.04 1004.79 1003.47 1002.91 1002.30 1001.99 1001.73 1000.81 1000.64 1001.05 1001.46 1002.22 1002.54 1003.32 1003.06 1001.98 1002.64 1003.06 1003.32 1003.35 1003.16 1003.39 1005.80 1006.15 1005.65 1006.13 1006.54 1006.59 1006.59 1006.87 1007.40 1007.94 1008.38 1008.69 1009.22 1009.46 1009.67 1010.10 1010.50 1010.88 1011.17 1011.47 1011.70
1010.19 1009.83 1009.20 1007.89 1007.19 1006.53 1006.23 1003.84 1002.78 1003.15 1003.18 1002.18 1001.82 1001.19 1000.47 1000.92 1000.72 1001.79 1002.08 1002.62 1003.03 1002.08 1001.83 1002.10 1002.11 1002.26 1002.78 1004.21 1005.30 1005.63 1005.24 1005.59 1005.92 1005.85 1005.97 1006.22 1006.58 1007.09 1007.71 1008.01 1008.57 1008.86 1009.05 1009.59 1010.21 1010.58 1010.89 1011.11 1011.38
1010.72 1010.52 1009.55 1008.62 1007.30 1006.65 1006.21 1004.20 1003.52 1003.27 1003.12 1002.42 1001.55 1001.28 1000.81 1000.36 1000.67 1000.64 1001.60 1001.82 1002.30 1002.69 1001.67 1001.03 1001.28 1001.60 1002.49 1003.32 1003.93 1004.33 1004.27 1004.85 1005.05 1005.19 1005.52 1005.62 1005.88 1006.43 1007.03 1007.35 1007.78 1008.29 1008.89 1009.03 1009.50 1010.18 1010.43 1010.81 1011.06
1011.04 1010.46 1009.47 1008.77 1007.73 1006.99 1006.37 1004.97 1004.47 1004.01 1003.78 1003.23 1002.72 1002.08 1001.34 1000.55 1000.10 1000.05 1000.30 1001.08 1001.03 1001.37 1001.75 1000.94 1000.71 1000.34 1001.22 1002.29 1002.90 1003.21 1003.59 1003.81 1004.25 1004.50 1004.77 1004.86 1005.10 1005.60 1006.24 1006.78 1007.25 1007.73 1008.50 1008.76 1008.95 1009.53 1009.90 1010.13 1010.42
1010.55 1010.15 1009.67 1008.69 1007.77 1007.09 1006.53 1005.17 1004.50 1004.19 1003.83 1003.64 1003.17 1002.72 1002.00 1001.05 999.95 999.45 999.48 999.45 1000.43 1000.57 1000.85 1001.23 1001.34 999.83 1000.60 1001.38 1002.30 1002.86 1003.04 1003.24 1003.69 1003.63 1003.61 1003.97 1004.48 1004.96 1005.49 1005.92 1006.57 1007.03 1007.54 1007.93 1008.38 1009.02 1009.61 1009.96 1010.06
1009.96 1009.87 1009.48 1008.56 1007.93 1007.58 1007.09 1005.27 1004.17 1004.18 1003.99 1003.60 1003.28 1002.81 1002.16 1001.34 1000.27 999.53 999.47 999.26 999.23 999.61 999.96 1000.04 1000.40 1000.74 1000.24 1000.40 1000.62 1001.03 1001.61 1002.42 1002.31 1002.98 1003.24 1003.46 1003.75 1004.14 1004.62 1005.21 1005.86 1006.32 1006.70 1007.39 1008.03 1008.45 1009.13 1009.50 1009.67
1009.92 1010.14 1010.07 1009.93 1008.91 1008.39 1007.81 1005.63 1004.66 1003.90 1003.90 1003.67 1003.42 1003.01 1002.35 1001.76 1000.91 1000.06 999.61 999.27 999.00 998.83 999.24 999.34 999.52 999.69 999.99 999.72 1000.42 1001.42 1002.11 1002.56 1002.90 1002.88 1002.74 1002.67 1003.07 1003.48 1003.90 1004.47 1005.12 1005.67 1005.98 1006.65 1007.27 1007.64 1008.28 1009.19 1009.53
1010.10 1010.16 1010.21 1010.07 1010.08 1009.72 1009.17 1006.80 1005.65 1004.79 1003.95 1003.82 1003.38 1003.02 1002.46 1001.62 1000.94 1000.22 999.66 999.25 998.61 998.33 998.09 998.49 998.71 999.09 999.30 999.87 1000.00 1000.32 1000.73 1001.48 1001.52 1001.60 1001.81 1002.00 1002.32 1002.74 1003.15 1003.68 1004.45 1005.09 1005.53 1006.13 1006.85 1007.12 1007.64 1008.27 1009.09
1010.17 1010.41 1010.59 1010.49 1010.36 1010.15 1009.37 1008.84 1004.93 1005.03 1004.43 1003.95 1003.51 1002.90 1002.24 1001.66 1001.00 1000.23 999.32 998.46 997.83 997.48 997.57 997.43 997.63 998.32 998.89 999.19 999.24 999.49 1000.05 1000.44 1000.78 1001.34 1001.63 1001.84 1002.00 1002.21 1002.58 1003.08 1003.89 1004.64 1005.24 1005.74 1006.31 1006.77 1007.11 1007.41 1008.16
1010.22 1010.65 1010.87 1010.91 1010.89 1010.54 1009.32 1009.06 1003.73 1005.24 1004.52 1004.18 1003.69 1003.64 1003.13 1002.53 1001.44 1000.46 999.28 998.37 997.68 997.17 996.77 996.82 997.22 997.49 998.11 998.25 998.60 998.96 999.49 1000.12 1000.89 1001.18 1001.46 1001.69 1001.97 1002.13 1002.35 1002.81 1003.47 1004.20 1004.88 1005.47 1005.90 1006.32 1006.60 1007.16 1007.48
1010.79 1011.58 1012.20 1012.15 1011.87 1010.69 1009.43 1008.52 1006.00 1004.99 1004.89 1005.17 1004.92 1004.11 1003.25 1002.64 1001.98 1001.09 1000.15 999.01 997.69 996.98 996.96 996.40 996.49 996.70 997.00 997.64 998.15 998.35 998.74 999.25 999.96 1000.55 1001.01 1001.52 1001.77 1002.20 1002.30 1002.65 1003.25 1004.03 1004.46 1005.22 1005.53 1005.97 1006.43 1007.01 1007.43
1011.02 1011.93 1013.11 1013.04 1012.81 1011.39 1010.69 1008.25 1006.29 1005.27 1005.02 1005.06 1004.94 1004.33 1003.28 1002.44 1001.78 1001.01 1000.22 999.10 997.81 996.88 996.34 996.29 995.94 996.09 996.40 996.65 996.97 997.51 998.10 998.65 999.23 999.90 1000.35 1000.74 1001.19 1001.60 1001.96 1002.53 1003.16 1003.83 1004.32 1004.89 1005.22 1005.81 1006.23 1006.77 1007.13
1010.82 1011.66 1011.74 1012.65 1012.60 1012.27 1010.01 1007.48 1005.79 1005.19 1004.95 1004.34 1004.10 1003.50 1002.89 1002.15 1001.50 1000.51 999.77 998.89 997.47 996.23 995.46 995.09 995.20 995.21 995.53 995.91 996.48 997.08 997.55 998.10 998.69 999.40 999.87 1000.21 1000.91 1001.49 1001.86 1002.39 1003.17 1003.44 1004.09 1004.56 1005.00 1005.64 1006.22 1006.58 1007.11
1010.32 1011.02 1012.08 1013.00 1012.97 1011.65 1009.26 1007.95 1006.59 1005.65 1005.20 1004.55 1003.76 1003.32 1002.42 1001.86 1001.11 1000.14 999.50 998.42 997.15 996.23 995.09 994.25 994.01 994.13 994.49 995.05 995.84 996.45 996.99 997.53 998.21 999.13 999.35 1000.07 1000.82 1001.39 1001.89 1002.43 1002.99 1003.43 1003.94 1004.38 1005.00 1005.56 1006.11 1006.60 1007.18
1010.48 1011.10 1012.05 1012.69 1012.81 1011.66 1010.13 1007.85 1006.18 1005.78 1005.04 1004.73 1003.84 1003.05 1002.10 1001.35 1000.66 999.69 998.81 997.96 997.06 996.20 995.21 993.89 993.04 993.45 994.13 994.71 995.18 995.91 996.74 997.38 998.13 998.53 999.06 999.83 1000.51 1001.17 1001.75 1002.39 1002.96 1003.41 1003.91 1004.53 1005.08 1005.59 1006.12 1006.71 1007.20
1010.26 1010.74 1011.40 1012.04 1012.16 1011.29 1010.22 1007.48 1005.27 1005.04 1004.20 1004.13 1003.12 1002.07 1001.43 1000.60 999.79 998.83 998.11 997.34 996.52 995.96 994.80 993.64 992.55 992.92 993.11 993.88 994.76 995.57 996.37 997.18 997.80 998.35 998.90 999.67 1000.36 1000.98 1001.61 1002.29 1002.77 1003.26 1003.94 1004.54 1005.10 1005.68 1006.04 1006.56 1007.03
Wind_Speed
6 4 1 4 4 5 5 9 5 15 9 2 8 7 10 8 7 6 5 9 22 19 14 16 19 22 23 23 21 20 18 17 17 15 16 16 15 15 14 13 12 12 11 11 9 9 8 7 5
3 3 4 2 5 1 7 7 16 8 14 16 16 3 3 3 5 10 13 14 24 20 14 13 19 23 24 23 22 20 19 18 18 17 16 16 15 15 14 13 12 11 11 10 9 8 8 8 7
3 1 3 4 4 7 7 4 5 7 13 18 10 9 7 9 3 17 5 19 24 20 15 13 19 22 24 24 23 21 20 19 18 17 16 16 15 14 14 13 12 12 11 10 10 10 9 8 7
1 4 2 2 11 9 7 11 14 14 16 16 8 4 2 8 20 10 20 18 22 19 15 17 20 21 24 24 23 22 21 20 19 18 17 17 16 15 13 13 12 11 11 11 10 10 9 9 8
2 4 1 4 11 9 9 8 8 13 12 18 7 7 7 2 13 22 22 19 22 17 14 15 19 20 23 23 23 22 21 21 20 19 19 18 16 15 14 14 13 13 12 12 11 10 9 8 7
1 4 1 7 14 13 8 8 6 7 9 20 9 4 2 4 16 18 20 19 18 21 15 14 19 19 21 22 22 22 22 21 21 20 19 18 17 16 15 14 14 13 12 12 11 10 10 8 7
4 4 6 5 11 13 12 5 11 7 10 12 6 1 2 4 9 19 18 15 15 17 17 13 13 15 19 20 20 21 20 20 20 19 19 18 17 16 16 15 14 13 13 12 12 11 10 9 9
3 2 4 6 12 13 7 3 5 9 16 6 5 1 2 6 9 10 10 10 14 13 13 13 10 11 11 12 17 19 19 19 18 17 17 17 16 16 16 15 14 14 14 13 12 12 12 10 10
1 4 11 13 12 12 9 8 15 6 8 11 9 8 5 14 13 11 11 7 6 10 12 12 11 10 9 9 11 14 18 18 17 15 16 13 7 8 11 12 14 14 14 14 13 13 12 11 11
6 5 9 6 10 12 14 17 19 17 17 18 11 14 15 7 19 19 15 12 11 12 12 11 12 12 11 9 10 8 8 7 8 9 9 6 6 6 8 11 15 14 15 15 14 13 13 12 4
5 11 7 7 9 8 14 23 15 15 17 15 9 10 9 11 7 6 22 23 23 17 11 14 13 12 13 10 7 5 5 5 6 8 8 6 6 5 5 3 5 5 13 5 9 7 5 5 4
7 10 7 10 15 15 20 19 21 18 21 13 17 3 5 6 3 6 6 3 11 14 12 8 6 3 6 6 7 7 7 6 6 8 9 7 5 6 5 5 6 5 5 5 5 4 5 5 5
6 9 9 11 12 16 17 21 23 24 22 14 22 6 5 2 4 5 8 3 11 13 12 11 9 8 4 5 5 7 8 8 8 8 9 8 8 8 7 6 6 6 5 6 6 6 6 7 6
5 7 9 7 9 6 8 13 12 27 19 14 16 20 7 5 9 8 6 5 10 10 12 14 12 10 11 9 8 8 8 8 7 7 9 12 9 8 8 7 8 7 7 7 7 8 8 7 6
7 8 9 6 3 4 6 16 24 14 10 13 11 19 8 7 5 11 11 8 8 14 14 16 16 16 12 9 9 8 8 7 8 8 9 12 11 10 10 8 8 8 8 8 7 6 4 4 5
6 4 4 3 7 6 8 26 22 11 10 17 11 13 16 7 10 11 11 9 8 12 14 14 12 9 9 14 13 10 8 8 8 8 8 12 12 11 10 8 8 7 7 8 8 6 5 6 5
3 5 6 7 6 6 6 16 8 8 8 16 18 9 16 15 9 9 10 14 11 8 10 12 14 19 21 19 15 13 10 10 8 7 7 11 12 12 10 9 8 7 7 8 8 6 5 4 4
6 5 6 5 5 1 7 16 8 6 6 8 10 11 14 17 12 11 9 12 13 15 11 14 12 14 17 13 12 8 6 8 6 9 9 10 10 13 11 8 7 9 7 7 6 8 6 4 5
7 10 7 5 8 6 9 15 14 6 6 8 8 12 13 15 19 11 11 10 12 11 12 8 12 16 11 8 9 7 11 10 5 7 9 10 10 11 12 9 8 10 10 10 10 6 5 3 4
8 5 7 6 7 11 12 21 18 8 6 7 10 11 11 13 17 18 12 12 9 10 13 15 11 14 12 10 10 8 10 6 8 8 9 11 12 10 11 12 10 12 8 7 8 7 3 3 5
6 5 8 8 12 8 6 18 16 15 5 6 7 9 10 10 13 15 13 10 10 10 10 12 17 18 17 17 8 3 4 1 3 4 4 6 9 12 13 12 11 10 9 8 7 6 7 4 3
3 7 10 12 9 4 3 16 16 12 14 8 10 8 11 11 11 10 13 11 9 10 8 10 14 17 17 15 13 13 7 6 5 5 4 4 8 11 12 12 10 10 6 6 6 5 5 5 5
6 6 6 9 10 4 9 7 13 5 13 15 13 15 11 12 10 12 14 15 14 10 10 10 10 10 11 12 11 10 5 5 2 3 5 4 5 10 11 11 9 7 5 6 7 7 6 4 5
3 4 7 4 3 6 9 9 27 12 9 14 12 13 14 16 15 14 11 13 12 8 8 9 10 11 9 9 9 9 10 8 5 4 4 4 3 5 8 10 9 7 6 6 6 6 8 6 4
2 4 5 6 3 6 2 6 20 9 3 2 9 12 12 12 12 15 17 14 11 10 10 9 12 14 15 14 12 12 13 12 10 8 6 6 4 3 7 8 7 6 6 6 6 6 6 5 5
5 6 5 4 6 11 13 8 6 7 3 3 7 9 11 8 10 14 17 18 14 13 12 13 11 14 13 15 16 13 13 9 7 8 6 7 7 7 8 8 7 8 7 6 6 4 4 5 4
2 4 8 3 4 5 6 8 6 5 6 9 11 10 13 13 10 14 17 16 16 15 17 15 15 16 15 15 12 10 11 9 9 9 8 6 5 6 8 8 7 7 7 7 7 5 5 5 5
7 3 2 3 4 5 5 6 7 8 9 10 14 12 15 14 14 14 13 17 15 16 17 12 17 18 17 15 12 11 10 10 10 10 10 10 8 7 7 6 6 6 6 7 7 5 5 6 4
3 2 2 3 4 4 5 6 7 8 11 9 12 13 12 16 16 13 13 14 14 12 16 16 11 10 11 12 10 11 10 10 10 10 10 10 9 8 8 8 7 7 8 7 6 5 6 6 6
4 4 5 3 3 4 3 10 10 11 12 7 12 15 15 15 16 13 12 12 13 13 13 16 7 8 9 11 11 10 10 11 10 9 10 10 10 9 9 9 8 9 8 8 8 7 6 7 7
Wind_Direction
313 305 353 42 53 66 247 254 252 274 334 237 293 247 213 163 157 203 144 160 135 145 159 168 166 149 144 143 142 142 142 141 137 138 137 137 137 139 139 137 139 142 145 143 145 147 151 150 146
318 343 38 78 97 115 264 230 248 287 272 291 304 318 238 208 138 125 119 167 146 143 157 168 171 153 148 146 145 147 148 147 145 147 148 147 149 150 148 149 152 153 150 153 155 160 158 156 164
266 187 78 120 173 196 236 212 232 264 283 280 288 177 178 171 95 146 127 153 137 143 157 166 174 157 150 150 150 152 152 150 152 154 156 157 159 160 158 161 162 162 162 167 171 171 172 171 180
86 25 20 119 246 259 245 306 308 306 306 289 273 237 143 223 155 153 128 150 137 148 157 165 174 166 155 153 153 156 155 157 161 162 162 166 167 167 165 167 171 171 175 180 183 180 183 186 187
57 78 288 236 257 261 280 276 294 293 288 293 311 320 139 326 119 134 139 154 145 150 157 165 176 174 156 156 158 158 161 164 165 166 169 173 172 174 173 175 179 179 184 189 193 190 191 199 197
23 112 152 237 256 267 276 285 287 288 293 308 320 88 243 128 136 150 152 155 156 152 159 166 178 177 161 158 162 161 167 168 169 171 176 177 178 178 178 183 185 187 189 196 200 196 202 203 208
171 127 219 242 270 287 272 316 296 265 293 300 281 262 280 189 173 155 155 145 154 151 153 165 177 178 166 163 168 166 170 171 172 177 180 181 183 181 184 187 191 191 195 200 204 199 207 211 219
185 156 223 222 251 276 272 297 296 292 292 278 279 319 197 228 147 132 119 132 143 142 153 161 175 174 171 166 177 171 172 175 177 181 181 183 186 187 191 190 195 195 198 204 206 204 209 214 220
298 203 226 227 236 250 335 310 299 299 325 317 331 328 109 117 122 107 106 105 117 144 165 164 173 176 171 157 181 176 177 179 180 184 186 183 186 189 199 195 199 200 204 208 211 210 209 215 224
180 208 223 246 249 288 310 298 299 329 328 315 353 348 52 149 154 148 152 165 166 168 180 179 181 177 170 169 174 169 183 186 183 185 184 177 178 182 190 199 205 205 208 213 215 213 215 220 201
214 243 258 275 286 295 291 288 306 305 300 295 320 353 12 59 25 304 171 178 177 185 168 180 188 186 181 172 167 171 175 186 187 184 174 171 179 192 198 181 203 195 212 209 215 214 216 209 189
252 263 260 261 264 269 272 287 281 280 269 274 287 212 315 88 29 307 318 253 151 162 167 169 147 199 220 175 175 184 181 188 193 194 180 176 184 188 199 188 197 189 204 192 200 194 209 210 205
257 276 273 266 261 250 258 263 273 279 275 282 288 262 218 273 125 109 132 329 155 159 152 140 133 137 185 263 205 178 197 202 197 189 190 187 191 193 189 197 188 196 188 190 200 202 210 213 210
302 301 289 295 288 280 288 288 284 270 283 276 273 284 192 240 138 113 314 163 140 139 150 152 157 173 182 179 232 209 187 203 198 196 193 195 196 191 195 195 199 196 193 195 202 205 212 212 202
304 307 316 293 269 284 280 278 259 280 312 283 263 284 264 209 147 154 178 200 206 161 162 167 174 179 184 166 220 219 200 190 203 205 196 194 195 194 196 198 204 201 194 189 202 213 204 192 206
325 326 330 308 352 277 159 262 264 271 280 281 273 277 279 218 244 166 196 202 224 174 170 180 178 170 171 194 214 214 201 196 207 205 193 197 195 191 196 197 205 195 185 187 200 202 199 205 205
323 257 265 307 238 232 173 269 294 320 272 274 279 270 282 278 225 250 183 187 215 247 217 195 180 179 190 201 203 202 192 201 205 195 195 196 195 197 194 202 197 177 192 192 192 205 191 185 197
252 262 268 278 290 39 288 274 282 298 317 295 300 295 281 275 253 237 224 185 199 209 225 215 204 188 182 195 204 204 191 202 187 200 202 188 198 198 195 200 190 180 191 197 183 192 202 173 193
263 270 269 283 295 280 274 276 286 281 302 306 300 301 299 291 277 257 240 239 178 197 203 238 259 206 198 179 184 205 213 215 213 214 201 196 202 192 192 198 186 186 199 199 194 180 178 188 159
312 311 309 274 303 305 302 287 284 269 252 263 274 280 283 296 295 274 255 236 231 196 201 210 212 239 201 198 203 204 200 213 214 206 207 195 206 193 190 195 193 195 193 178 180 178 146 171 167
336 354 348 335 324 333 328 288 293 293 246 278 285 271 280 270 284 286 268 233 244 223 202 202 204 205 213 202 187 81 91 75 144 215 214 207 190 190 192 190 191 188 189 188 186 181 159 152 197
336 348 331 321 330 277 12 284 286 289 289 267 280 284 281 282 279 272 280 271 223 233 216 200 201 201 200 198 188 188 177 173 210 179 189 205 188 192 183 181 178 184 173 165 186 169 163 140 159
265 333 305 305 285 297 260 263 288 328 295 298 288 275 269 274 265 275 280 278 248 216 198 205 186 187 199 186 189 194 170 193 171 172 195 200 184 179 177 167 158 158 158 171 177 170 159 160 151
311 318 318 326 219 246 275 218 276 254 271 275 330 347 336 335 325 307 282 280 272 244 209 185 178 195 204 192 201 185 184 192 173 183 195 193 168 158 156 152 160 162 160 168 177 178 162 169 141
154 16 327 333 348 240 8 295 260 268 64 113 317 313 312 312 320 317 314 301 283 267 242 202 190 202 202 202 208 202 202 198 189 179 181 161 151 156 160 154 155 165 164 170 161 159 159 170 159
239 178 163 256 278 289 290 249 266 81 49 286 274 270 293 304 314 311 309 307 276 257 244 220 202 206 202 206 210 206 204 197 183 180 173 177 173 166 158 152 146 166 158 153 150 152 159 157 163
255 193 206 183 231 261 236 279 279 46 340 332 321 319 308 315 306 309 308 308 313 286 267 220 210 210 207 207 205 200 195 173 173 167 167 156 142 152 151 152 161 152 152 147 147 148 155 154 147
179 210 279 9 285 250 260 270 257 313 301 309 315 313 300 306 302 302 299 304 308 321 286 231 206 202 199 196 193 195 183 164 153 160 152 151 142 143 151 145 147 136 143 144 140 140 135 139 159
314 221 58 122 201 267 296 260 230 246 259 265 281 289 297 298 291 287 292 290 301 298 315 258 214 178 171 177 173 162 160 151 154 155 152 154 147 150 149 147 144 146 144 143 143 141 146 171 168
238 211 158 186 208 230 257 257 257 224 243 247 283 303 298 276 272 270 282 287 295 308 311 294 206 176 160 155 153 148 142 145 146 147 147 145 147 144 144 153 150 147 157 159 149 162 171 168 177